Wind_Speed
11 11 11 10 10 10 10 10 10 10 10 10 10 10 10 10 10 10 10 11 11 11 12 13 14 15 15 15 16 16 16 17 17 17 17 18 18 18 17 17 17 18 18
11 11 11 11 10 10 10 10 10 10 10 10 10 10 10 11 11 11 11 11 11 12 13 14 14 15 16 16 17 17 17 17 18 18 17 18 18 18 18 18 18 19 19
12 11 11 11 11 10 11 10 10 10 10 11 11 11 11 11 12 12 12 12 12 13 14 15 16 16 17 17 18 18 18 18 18 18 18 18 19 19 19 19 19 20 20
12 11 11 11 11 11 11 11 11 11 11 11 12 12 12 12 12 13 13 13 14 14 15 16 16 17 18 18 18 18 19 18 18 18 19 19 19 20 20 20 20 21 21
11 11 11 11 11 11 11 12 12 11 11 12 12 13 13 13 13 14 14 14 15 15 16 16 17 18 18 19 19 19 19 19 19 19 19 20 20 20 20 21 21 21 22
11 11 11 11 11 11 11 12 11 11 11 12 12 13 13 13 14 15 15 15 16 17 17 17 18 19 19 19 19 19 19 20 20 20 20 20 21 21 21 22 22 22 22
12 12 12 12 11 12 12 12 12 12 12 12 12 13 13 14 14 15 15 16 17 17 17 18 19 19 19 19 19 19 20 21 21 21 21 21 22 22 23 23 23 23 24
12 12 13 13 13 13 13 13 13 12 13 13 13 14 14 15 15 15 16 17 17 18 18 19 19 20 19 20 20 20 21 21 22 23 23 23 23 23 23 24 24 24 25
13 13 14 14 14 14 14 14 14 14 14 14 15 15 16 16 16 16 17 18 19 19 20 20 20 20 21 21 22 22 22 23 23 24 24 24 25 25 25 25 25 25 25
15 15 15 15 15 15 15 15 14 15 15 15 16 17 18 18 18 18 19 20 20 20 21 21 21 22 22 23 23 24 24 24 24 24 25 25 25 26 27 27 27 28 28
16 16 16 16 16 16 16 16 16 17 17 17 18 18 18 19 19 20 21 21 21 21 21 21 22 23 24 24 24 25 25 25 25 25 26 26 27 28 28 29 30 30 31
17 17 17 18 18 18 17 18 18 18 18 19 19 19 19 20 20 20 20 21 21 22 22 22 23 24 24 24 25 26 26 26 27 27 27 28 29 29 30 31 31 32 33
18 18 19 19 19 19 19 19 19 19 19 19 20 20 20 20 21 21 21 22 22 23 23 23 24 24 25 25 26 26 27 27 28 28 29 29 30 31 31 32 32 33 34
19 19 19 20 20 20 20 20 20 20 20 21 21 21 21 21 22 22 22 23 23 23 24 24 25 26 26 26 26 27 28 29 30 30 30 31 31 32 33 33 34 34 35
20 20 20 20 21 20 20 20 21 21 22 22 23 23 23 23 24 24 25 25 25 25 26 26 27 27 27 28 28 29 29 30 31 32 32 33 33 34 34 35 35 36 36
22 22 22 22 22 21 21 22 22 23 24 24 25 25 26 25 25 27 27 27 27 27 27 28 28 28 29 29 30 31 31 32 33 33 34 34 35 35 36 36 36 37 37
24 23 23 23 23 23 23 24 24 25 25 25 26 26 26 27 27 28 29 29 29 28 28 29 29 30 30 31 32 33 34 34 34 35 36 36 37 37 38 38 38 38 39
25 25 24 25 25 25 25 26 26 26 26 27 27 28 29 29 29 29 30 29 29 29 29 29 30 31 32 33 34 34 35 35 36 36 37 37 38 38 38 38 39 39 39
27 27 27 27 27 27 27 28 28 28 28 28 28 29 30 31 31 31 31 31 31 31 31 32 33 34 35 35 35 35 35 36 36 37 37 38 38 38 38 39 39 39 40
29 30 30 30 29 29 29 30 30 30 30 30 30 30 31 31 32 32 32 32 33 33 33 34 35 36 36 36 36 36 36 37 37 38 39 39 39 39 39 40 40 40 41
32 32 32 32 32 32 31 32 32 32 32 32 32 32 33 32 32 33 33 33 34 35 35 36 37 37 37 37 37 37 37 38 38 39 39 39 40 40 41 41 41 41 41
34 34 33 33 34 34 33 33 33 34 34 33 33 33 33 33 33 33 34 34 35 36 36 37 37 38 38 37 37 38 39 39 40 40 40 40 41 40 40 41 41 42 42
36 35 35 35 35 35 35 34 34 34 34 34 34 34 34 33 34 35 35 36 36 37 37 37 37 37 38 38 38 39 39 40 41 41 42 42 42 41 41 41 42 42 42
36 36 36 36 35 35 35 36 35 35 35 35 34 34 34 34 35 36 36 37 37 37 37 37 38 38 39 39 39 39 40 41 41 42 42 41 41 41 41 41 42 42 43
37 37 37 36 35 36 36 36 36 36 36 36 36 36 36 36 37 38 38 38 37 37 37 38 39 39 39 39 39 40 41 42 42 42 42 42 42 42 41 42 43 43 43
38 37 36 36 35 35 36 36 36 36 36 36 36 37 37 37 37 38 38 38 37 38 38 38 39 39 39 40 40 41 41 41 42 42 42 42 42 42 42 43 43 44 44
Wind_Direction
260 259 256 257 257 258 261 261 263 263 266 267 268 275 280 285 290 291 294 297 298 301 305 307 308 309 308 306 306 306 306 308 310 309 306 304 305 305 303 304 306 305 304
258 257 258 257 258 259 261 260 262 264 266 268 267 273 278 284 288 290 294 296 299 303 305 306 308 309 309 308 306 307 306 307 308 310 308 306 306 305 306 306 306 305 304
257 257 259 262 259 259 261 259 262 263 266 269 270 272 277 283 287 290 293 294 297 300 302 305 307 309 308 308 308 308 308 307 307 307 308 306 305 304 305 306 306 305 305
257 259 261 263 263 260 261 263 265 267 270 271 272 274 277 281 285 288 292 294 296 298 300 302 305 307 308 308 308 308 308 307 307 306 306 306 305 304 304 304 305 305 305
259 261 260 261 265 267 263 266 267 268 272 275 275 277 278 281 283 287 290 293 296 299 300 302 304 306 308 307 307 307 308 308 308 307 306 306 305 305 305 305 305 305 304
260 262 261 261 264 267 269 271 272 272 276 278 277 278 280 282 284 286 289 293 295 297 300 301 303 307 308 306 306 306 306 307 307 308 307 306 305 305 304 304 305 305 304
261 263 264 262 263 268 272 273 275 276 277 279 280 283 283 284 286 288 290 292 295 298 300 301 301 303 305 305 305 305 305 306 306 307 307 307 306 305 305 305 306 305 305
262 264 265 265 265 269 271 272 273 276 276 278 281 282 284 286 287 289 290 292 295 297 300 302 302 303 303 304 305 306 306 306 306 308 307 307 307 306 305 306 306 306 306
265 265 267 269 270 271 271 274 272 275 277 279 280 283 285 287 288 289 291 292 294 296 298 299 301 302 302 301 303 304 304 304 304 305 305 306 306 305 304 305 306 307 307
266 267 268 269 271 271 271 273 274 275 278 279 282 283 286 288 288 288 289 291 292 294 296 298 299 302 302 301 302 302 302 302 302 303 304 305 306 306 304 303 304 305 305
264 265 266 267 269 270 272 273 275 276 278 279 282 282 284 288 288 287 288 290 290 292 294 297 298 301 302 302 301 301 301 301 301 301 302 304 306 306 305 304 303 303 304
263 264 266 267 269 270 271 273 276 278 277 278 281 284 286 289 290 290 289 289 290 292 296 297 298 299 302 302 301 301 301 301 301 301 302 303 304 305 305 305 305 305 305
262 264 266 268 269 270 272 274 277 279 278 277 279 282 286 289 290 291 292 291 290 294 296 298 298 299 301 302 302 301 301 302 302 302 301 302 302 303 304 305 306 306 306
262 264 267 269 270 271 272 273 276 279 279 278 280 281 283 286 288 290 291 291 291 293 295 297 298 299 299 300 300 300 300 300 300 301 301 301 301 302 303 304 305 305 304
261 264 266 269 271 273 274 274 276 278 280 279 280 281 284 285 287 289 290 290 290 292 293 295 297 298 298 298 299 299 300 300 300 300 301 301 301 302 303 303 303 303 303
263 265 266 268 270 272 275 275 276 279 281 281 282 283 284 286 288 289 289 288 289 290 292 294 296 297 298 298 299 299 300 301 301 301 301 301 302 302 303 302 302 303 303
263 264 266 268 270 272 275 277 278 279 280 281 282 282 284 286 287 288 289 289 288 290 292 293 295 297 297 298 299 300 301 301 301 302 302 302 302 302 302 302 302 303 303
263 265 266 267 269 271 274 276 278 279 280 280 281 281 283 285 286 287 288 289 290 291 292 294 295 297 297 298 299 300 300 301 301 302 302 302 303 302 302 301 302 302 302
263 266 267 269 269 271 275 276 278 279 280 281 281 281 283 285 286 286 287 288 289 291 292 294 295 296 297 297 299 300 300 301 302 302 302 303 303 303 302 302 302 302 303
264 266 268 269 271 272 274 276 278 280 280 281 280 281 282 284 285 285 285 285 287 289 291 293 295 296 296 296 297 299 300 301 302 303 302 302 302 303 303 304 303 302 303
264 266 268 270 271 273 275 277 278 280 280 280 281 283 284 284 285 285 285 285 287 289 291 293 293 294 295 295 296 298 299 301 302 302 302 302 302 302 303 303 304 304 304
265 266 268 270 272 273 274 276 278 279 280 280 281 282 283 284 285 284 284 285 287 290 292 292 293 295 295 295 296 298 299 299 300 300 301 302 303 303 303 303 304 305 305
265 267 268 271 272 273 274 276 278 280 280 280 281 282 282 283 284 284 285 286 288 291 291 292 293 295 296 296 296 298 299 299 300 301 301 302 301 301 302 303 304 305 305
266 268 269 270 272 273 274 276 279 280 280 280 280 281 282 282 284 285 286 288 290 291 291 292 294 295 295 296 297 297 298 299 299 300 301 302 301 301 301 303 304 305 305
266 268 269 271 272 273 274 276 278 280 279 280 280 281 282 282 283 285 286 288 289 290 292 294 295 294 295 295 297 297 297 298 299 300 301 301 302 301 301 302 303 304 304
265 266 267 268 270 272 273 274 276 277 278 280 281 282 283 283 284 286 287 287 289 290 292 294 295 295 294 294 295 297 297 299 299 300 301 301 301 301 302 302 303 304 304
Height
5851 5852 5853 5854 5854 5855 5856 5857 5857 5858 5858 5859 5859 5859 5859 5859 5859 5858 5858 5857 5856 5856 5855 5854 5853 5851 5850 5848 5847 5845 5844 5842 5841 5839 5837 5835 5833 5832 5830 5828 5827 5825 5823
5849 5850 5850 5851 5852 5852 5853 5854 5854 5855 5855 5856 5856 5856 5856 5856 5856 5856 5855 5854 5853 5853 5852 5851 5850 5848 5846 5845 5843 5841 5840 5838 5837 5835 5833 5831 5829 5827 5826 5824 5822 5820 5818
5846 5847 5848 5848 5849 5850 5850 5851 5851 5852 5852 5853 5853 5853 5853 5853 5853 5852 5852 5851 5850 5849 5849 5847 5846 5845 5843 5841 5840 5838 5836 5834 5833 5831 5829 5827 5825 5823 5821 5820 5818 5816 5813
5843 5844 5845 5845 5846 5846 5847 5848 5848 5849 5849 5849 5850 5850 5850 5850 5849 5849 5848 5848 5847 5846 5845 5844 5842 5841 5839 5837 5836 5834 5832 5830 5828 5827 5825 5823 5821 5819 5817 5815 5813 5811 5809
5840 5841 5842 5843 5843 5843 5844 5845 5845 5845 5845 5846 5846 5846 5846 5846 5845 5845 5844 5844 5843 5842 5841 5840 5838 5837 5835 5833 5831 5830 5828 5826 5824 5822 5820 5818 5816 5814 5812 5810 5808 5805 5803
5838 5838 5839 5839 5840 5841 5841 5841 5841 5842 5842 5842 5842 5842 5842 5842 5841 5841 5840 5840 5839 5838 5837 5836 5834 5832 5831 5829 5827 5825 5823 5821 5819 5817 5815 5813 5811 5809 5807 5804 5802 5800 5798
5835 5835 5836 5836 5837 5837 5838 5838 5838 5838 5838 5839 5839 5838 5838 5838 5837 5837 5836 5836 5835 5834 5833 5831 5830 5828 5826 5824 5823 5821 5819 5816 5814 5812 5810 5808 5806 5803 5801 5798 5796 5793 5791
5831 5832 5832 5833 5833 5834 5834 5834 5835 5835 5835 5835 5835 5835 5834 5834 5833 5833 5832 5831 5830 5829 5828 5827 5825 5823 5822 5820 5818 5816 5814 5812 5809 5807 5804 5802 5800 5797 5795 5792 5790 5787 5784
5827 5828 5828 5829 5830 5830 5830 5830 5831 5831 5831 5831 5831 5830 5830 5829 5829 5828 5828 5827 5826 5825 5823 5822 5820 5818 5817 5815 5813 5811 5809 5806 5804 5801 5799 5796 5793 5791 5788 5786 5783 5780 5778
5823 5824 5824 5825 5825 5826 5826 5826 5827 5827 5827 5827 5826 5826 5826 5825 5824 5823 5823 5822 5821 5820 5818 5816 5815 5813 5811 5809 5807 5805 5803 5800 5798 5795 5793 5790 5787 5784 5781 5779 5776 5773 5770
5819 5819 5820 5820 5821 5821 5822 5822 5822 5822 5822 5822 5822 5821 5820 5820 5819 5818 5817 5816 5815 5814 5812 5811 5809 5807 5805 5803 5800 5798 5796 5794 5791 5789 5786 5783 5780 5777 5774 5771 5768 5765 5762
5813 5814 5815 5815 5816 5816 5817 5817 5817 5817 5817 5817 5816 5816 5815 5814 5813 5812 5811 5810 5809 5808 5806 5805 5803 5801 5799 5796 5794 5791 5789 5786 5784 5781 5779 5776 5773 5770 5767 5764 5760 5757 5753
5808 5809 5809 5810 5810 5811 5811 5812 5812 5811 5811 5811 5811 5810 5810 5809 5807 5806 5805 5804 5803 5802 5800 5798 5796 5794 5792 5789 5787 5784 5781 5779 5776 5774 5771 5768 5765 5762 5759 5755 5752 5748 5744
5802 5803 5804 5804 5805 5805 5806 5806 5806 5806 5805 5805 5805 5804 5803 5803 5802 5800 5799 5798 5797 5795 5793 5791 5789 5787 5785 5782 5779 5777 5774 5771 5769 5766 5763 5760 5756 5753 5750 5746 5743 5739 5736
5796 5797 5798 5799 5799 5799 5800 5800 5800 5799 5799 5799 5798 5798 5797 5796 5795 5794 5792 5791 5789 5788 5786 5784 5782 5780 5777 5775 5772 5769 5766 5763 5760 5757 5754 5751 5747 5744 5740 5737 5733 5730 5726
5790 5791 5792 5792 5793 5793 5793 5793 5793 5793 5792 5792 5791 5790 5790 5788 5787 5786 5784 5783 5782 5780 5778 5776 5774 5772 5769 5766 5764 5761 5758 5755 5751 5748 5745 5741 5738 5734 5731 5727 5723 5719 5715
5783 5784 5785 5786 5786 5787 5787 5787 5786 5786 5785 5784 5784 5783 5782 5781 5780 5778 5777 5775 5773 5772 5770 5768 5766 5763 5761 5758 5755 5752 5749 5746 5742 5739 5735 5731 5728 5724 5720 5716 5712 5709 5705
5776 5777 5778 5778 5779 5779 5779 5779 5779 5778 5778 5777 5776 5775 5774 5773 5771 5770 5768 5767 5765 5763 5761 5759 5757 5754 5751 5749 5746 5743 5739 5736 5732 5728 5725 5721 5717 5713 5709 5705 5701 5697 5693
5769 5769 5770 5771 5771 5771 5771 5771 5771 5770 5769 5769 5768 5767 5765 5764 5762 5761 5759 5758 5756 5754 5752 5750 5747 5744 5742 5739 5735 5732 5729 5725 5722 5718 5714 5710 5706 5702 5698 5694 5690 5686 5682
5760 5761 5761 5762 5762 5762 5762 5762 5762 5761 5760 5759 5759 5758 5756 5755 5753 5752 5750 5749 5747 5745 5743 5740 5737 5734 5731 5728 5725 5722 5719 5715 5711 5708 5703 5699 5695 5691 5687 5683 5679 5674 5670
5751 5751 5752 5752 5753 5753 5753 5752 5752 5751 5751 5750 5749 5748 5746 5745 5743 5742 5740 5739 5737 5735 5732 5730 5727 5724 5721 5718 5715 5711 5708 5705 5701 5697 5693 5688 5684 5680 5676 5672 5667 5663 5658
5740 5741 5742 5742 5742 5742 5742 5742 5742 5741 5740 5740 5739 5737 5736 5734 5733 5731 5730 5728 5726 5724 5722 5719 5716 5713 5710 5707 5704 5700 5697 5693 5690 5686 5682 5678 5673 5669 5665 5660 5656 5652 5647
5730 5730 5731 5732 5732 5732 5732 5731 5731 5730 5729 5729 5728 5727 5725 5724 5723 5721 5719 5718 5716 5713 5711 5708 5705 5702 5699 5696 5692 5689 5685 5682 5678 5674 5670 5666 5662 5658 5653 5649 5645 5640 5636
5719 5719 5720 5720 5720 5721 5721 5720 5720 5719 5718 5718 5717 5716 5715 5714 5712 5711 5709 5707 5704 5702 5699 5697 5694 5691 5688 5685 5681 5677 5674 5670 5666 5662 5658 5654 5650 5646 5642 5637 5633 5629 5624
5707 5707 5708 5709 5709 5709 5709 5709 5709 5708 5707 5706 5705 5705 5704 5703 5701 5699 5698 5695 5693 5691 5689 5686 5683 5680 5677 5673 5670 5666 5662 5658 5654 5650 5646 5642 5638 5634 5630 5626 5621 5617 5612
5695 5696 5696 5697 5698 5698 5698 5698 5697 5696 5696 5695 5694 5693 5692 5691 5689 5688 5686 5684 5682 5680 5677 5674 5671 5668 5665 5662 5658 5654 5650 5647 5642 5638 5634 5630 5626 5622 5618 5613 5609 5604 5600